User: anonymous   Login
Location: Unspecified
(0.0000°N, 0.0000°E)
Time: 06:45:04
(UTC+00:00)
Language:

Informator 1 - Orbit

View from above orbital plane
View from above orbital plane
View from above satellite
View from above satellite

Ground track
Ground track

The orbit data is extracted from the following two-line orbital elements,

1 21087U 91006A   18173.94493966 +.00000046 +00000-0 +31212-4 0  9997
2 21087 082.9434 126.5001 0036626 095.7723 323.7088 13.75263361374687
Epoch (UTC): 22 June 2018 22:40:42
Eccentricity: 0.0036626
inclination: 82.9434°
perigee height: 954 km
apogee height: 1007 km
right ascension of ascending node: 126.5001°
argument of perigee: 95.7723°
revolutions per day: 13.75263361
mean anomaly at epoch: 323.7088°
orbit number at epoch: 37468

The dashed part of the orbit path shows where the satellite is in the earth's shadow,  

DLR